Tracking 28052 objects as of 25-Sep-2023
HD Live streaming from Space Station
objects crossing your sky now

SHIYAN 22A (SY-22A)

Track SHIYAN 22A (SY-22A) now!
10-day predictions


NORAD ID: 55242
Int'l Code: 2023-006A
Perigee: 474.3 km
Apogee: 494.7 km
Inclination: 43.2 °
Period: 94.2 minutes
Semi major axis: 6855 km
RCS: Unknown
Launch date: January 13, 2023
Source: People's Republic of China (PRC)
Launch site: Jiuquan Satellite Launch Center, China (JSC)
Your satellite tracking list
Your tracking list is empty




NASA's NSSDC Master Catalog

Two Line Element Set (TLE):
1 55242U 23006A   23267.91340083  .00038482  00000-0  13181-2 0  9998
2 55242  43.1902 222.6466 0014869 128.5526 231.6664 15.29472101 38836
Source of the keplerian elements: AFSPC